Regional Weather Roundup
Issued by NWS

Home | Current Version | Previous Version | Text Only | Print | Product List | Glossary Off
Versions: 1 2 3 4 5 6 7 8 9 10 11 12 13 14 15 16 17 18 19 20 21 22 23 24 25 26 27 28 29 30 31 32 33 34 35 36 37 38 39 40 41 42 43 44 45 46 47 48 49 50

865
ASUS43 KOAX 201310
RWRNE

WEATHER ROUNDUP FOR NEBRASKA
NATIONAL WEATHER SERVICE OMAHA NE
800 AM CDT WED SEP 20 2017

NOTES: SATELLITE DATA IS BEING USED TO AUGMENT CLOUD COVER ABOVE
       12000 FEET.
       "FAIR" INDICATES FEW OR NO CLOUDS BELOW 12,000 FEET WITH NO
       SIGNIFICANT WEATHER AND/OR OBSTRUCTIONS TO VISIBILITY.


NEZ001>004-019>022-054>056-201400-
NEBRASKA PANHANDLE

CITY           SKY/WX    TMP DP  RH WIND       PRES   REMARKS
SCOTTSBLUFF    PTCLDY    50  31  48 W10       29.92S
ALLIANCE       CLOUDY    49  31  49 NW12      29.90R
CHADRON        CLEAR     45  30  55 S10       29.88S
GORDON         FAIR      45  33  64 W8        29.89R
KIMBALL        CLOUDY    52  28  39 NW15G23   29.94S
SIDNEY         PTCLDY    51  29  42 CALM      29.96R
$$

NEZ057>060-069>072-079>082-201400-
SOUTHWEST NEBRASKA

CITY           SKY/WX    TMP DP  RH WIND       PRES   REMARKS
NORTH PLATTE   CLOUDY    40  38  93 CALM      29.93R
IMPERIAL       CLOUDY    42  35  76 W7        29.96R
LEXINGTON      CLEAR     46  42  87 W7        29.90R
MCCOOK         CLEAR     43  37  79 W8        29.92R
OGALLALA       CLOUDY    41  37  87 SW3       29.95R
$$

NEZ005>010-023>029-035>040-094-201400-
NORTH CENTRAL NEBRASKA

CITY           SKY/WX    TMP DP  RH WIND       PRES   REMARKS
VALENTINE      CLOUDY    47  45  93 SW6       29.87R
AINSWORTH      CLOUDY    50  48  93 CALM      29.87S
BROKEN BOW     CLEAR     45  41  86 N3        29.88R
O`NEILL        CLEAR     50  48  95 W7        29.87R
ORD              N/A     49  45  86 NW7       29.85S
THEDFORD       CLOUDY    49  43  80 CALM      29.89S
$$

NEZ041-046>049-061>064-073>077-083>087-201400-
SOUTH CENTRAL NEBRASKA

CITY           SKY/WX    TMP DP  RH WIND       PRES   REMARKS
GRAND ISLAND   CLEAR     54  49  83 NW10      29.85R
AURORA         CLEAR     54  50  85 NW9       29.83R
HASTINGS       CLEAR     54  47  77 N12       29.85R
HEBRON         CLEAR     60  52  73 N9        29.79R
HOLDREGE       CLEAR     49  44  83 NW8       29.89R
KEARNEY        CLEAR     51  46  83 NW8       29.88R
YORK           CLEAR     55  52  88 NW7       29.82R
$$

NEZ011>018-030>034-042>045-201400-
NORTHEAST NEBRASKA

CITY           SKY/WX    TMP DP  RH WIND       PRES   REMARKS
NORFOLK        CLEAR     54  51  90 W7        29.82R
ALBION         CLEAR     51  48  91 NW7       29.84R
BLAIR          CLEAR     63  55  73 NW8       29.76R
COLUMBUS       CLEAR     56  51  84 MISG      29.82R
FREMONT        CLEAR     59  55  88 W7        29.78R
TEKAMAH        CLEAR     61  54  77 NW8       29.76R
WAYNE          CLEAR     55  53  91 NW8       29.80R
$$

NEZ050>053-065>068-078-088>093-201400-
SOUTHEAST NEBRASKA

CITY           SKY/WX    TMP DP  RH WIND       PRES   REMARKS
LINCOLN        CLEAR     64  52  64 N14       29.77R
OMAHA EPPLEY   PTCLDY    65  58  78 N12       29.73R
BEATRICE       CLEAR     62  54  74 NW6       29.76R
FALLS CITY     CLEAR     75  69  81 S10       29.72R
NEBRASKA CITY  CLEAR     71  71 100 W7        29.73R
PLATTSMOUTH    MOCLDY    70  65  85 N6        29.73R
$$

NEZ044-045-051>053-067-201400-
OMAHA AREA

CITY           SKY/WX    TMP DP  RH WIND       PRES   REMARKS
OMAHA EPPLEY   PTCLDY    65  58  78 N12       29.73R
BLAIR          CLEAR     63  55  73 NW8       29.76R
FREMONT        CLEAR     59  55  88 W7        29.78R
MILLARD        CLEAR     68  58  71 NW8       29.75R
OFFUTT AFB     PTCLDY    69  60  75 N5        29.72R
PLATTSMOUTH    MOCLDY    70  65  85 N6        29.73R
WAHOO          FAIR      60  55  82 NW13      29.77R
$$




USA.gov is the U.S. government's official web portal to all federal, state and local government web resources and services.